Regional Weather Roundup
Issued by NWS

Home | Current Version | Previous Version | Graphics & Text | Print | Product List | Glossary On
Versions: 1 2 3 4 5 6 7 8 9 10 11 12 13 14 15 16 17 18 19 20 21 22 23 24 25 26 27 28 29 30 31 32 33 34 35 36 37 38 39 40 41 42 43 44 45 46 47 48 49 50
000
ASUS43 KLOT 212158
RWRIL

ILLINOIS REGIONAL WEATHER ROUNDUP
NATIONAL WEATHER SERVICE CHICAGO/ROMEOVILLE IL
500 PM CDT TUE OCT 21 2014

NOTE: "FAIR" INDICATES FEW OR NO CLOUDS BELOW 12,000 FEET WITH NO
SIGNIFICANT WEATHER AND/OR OBSTRUCTIONS TO VISIBILITY.

* THESE STATIONS ARE NOT UNDER NWS QUALITY CONTROL. THEY ALSO MAY NOT
  REPORT WEATHER SUCH AS PRECIPITATION OR FOG.

ILZ001-002-007-009-015-016-024-212300-
NORTHWEST ILLINOIS

CITY           SKY/WX    TMP DP  RH WIND       PRES   REMARKS
MOLINE         SUNNY     58  38  47 E6        30.17R
$$

ILZ003-004-008-010-011-017-018-212300-
NORTH CENTRAL ILLINOIS

CITY           SKY/WX    TMP DP  RH WIND       PRES   REMARKS
ROCKFORD       NOT AVBL
$$

ILZ005-006-012>014-019>023-212300-
NORTHEAST ILLINOIS

CITY           SKY/WX    TMP DP  RH WIND       PRES   REMARKS
CHICAGO-OHARE  CLOUDY    49  39  68 N15       30.20R
CHICAGO-MIDWAY CLOUDY    52  38  58 N12G22    30.19S
AURORA         CLOUDY    51  38  60 NE12      30.21R
WAUKEGAN       NOT AVBL
DUPAGE AIRPORT CLOUDY    49  39  68 NE7       30.20R
WHEELING       CLOUDY    50  39  66 N10       30.21R
NORTHERLY ISL    N/A     50  39  66 MISG        N/A
$$

LMZ740>746-212300-
SOUTHERN LAKE MICHIGAN

STATION/POSITION SKY/WX   TEMP    WIND        PRES    VSBY  WAVE
                          AIR SEA DIR/SP/G                  HT/PER
                          (F)     (DEG/KT/KT) (MB)    (MI)  (FT/S)
SOUTHERN BUOY              49 54  350/ 17/ 21 1022.1R         5/ 7
WAUKEGAN HARBOR            49     350/ 13/ 17   N/A
HARRISON CRIB              50     360/ 17/ 20   N/A
BURNHAM HARBOR             50     360/  9/ 17   N/A
CALUMET HARBOR             51     350/ 11/ 16 1021.0R
MICHIGAN CITY              50     350/ 18/ 21   N/A
$$

ILZ025>027-034>036-040-047-049-050-058-095>099-212300-
WEST-CENTRAL ILLINOIS

CITY           SKY/WX    TMP DP  RH WIND       PRES   REMARKS
$$

ILZ028>032-037-038-041>044-048-051>054-059>061-212300-
CENTRAL ILLINOIS

CITY           SKY/WX    TMP DP  RH WIND       PRES   REMARKS
PEORIA         NOT AVBL
SPRINGFIELD    SUNNY     60  40  47 NE13      30.16R
TAYLORVILLE    NOT AVBL
$$

ILZ033-039-045-046-055>057-062-063-212300-
EAST-CENTRAL ILLINOIS

CITY           SKY/WX    TMP DP  RH WIND       PRES   REMARKS
CHAMPAIGN      PTSUNNY   59  41  51 NE13G21   30.17R
MATTOON        SUNNY     58  37  45 N13G20    30.14R
$$

ILZ079-100>102-212300-
SOUTHWEST ILLINOIS

CITY           SKY/WX    TMP DP  RH WIND       PRES   REMARKS
ALTON          SUNNY     64  36  34 N9        30.12S
CAHOKIA*       SUNNY     67  44  43 NE10      30.11S
$$

ILZ064>066-069>071-074>076-080>082-084>086-088>090-092>094-212300-
SOUTH-CENTRAL ILLINOIS

CITY           SKY/WX    TMP DP  RH WIND       PRES   REMARKS
CARBONDALE     SUNNY     68  43  40 N8        30.09S
MARION         SUNNY     66  45  45 N12       30.10S
$$

ILZ067-068-072-073-078-083-087-091-212300-
SOUTHEAST ILLINOIS

CITY           SKY/WX    TMP DP  RH WIND       PRES   REMARKS
$$

ABBREVIATIONS USED IN REMARKS
   TC - TEMPERATURE IN CELSIUS
  WCI - WIND CHILL INDEX
   HX - HEAT INDEX
  VSB - VISIBILITY
$$




USA.gov is the U.S. government's official web portal to all federal, state and local government web resources and services.